TimeAST,TemperatureF,Dew PointF,Humidity,Sea Level PressureIn,VisibilityMPH,Wind Direction,Wind SpeedMPH,Gust SpeedMPH,PrecipitationIn,Events,Conditions,WindDirDegrees,DateUTC
12:00 AM,28.4,21.2,74,30.61,15.0,WSW,6.9,-,N/A,,Partly Cloudy,250,2012-11-18 04:00:00
1:00 AM,28.4,21.2,74,30.60,15.0,WSW,6.9,-,N/A,,Partly Cloudy,250,2012-11-18 05:00:00
2:00 AM,27,20,67,30.61,15,West,6.9,,,,,260,2012-11-18 06:00:00
2:00 AM,26.6,19.4,74,30.61,15.0,West,6.9,-,N/A,,Clear,270,2012-11-18 06:00:00
3:00 AM,28.4,19.4,69,30.62,15.0,WNW,8.1,-,N/A,,Clear,290,2012-11-18 07:00:00
4:00 AM,28.4,19.4,69,30.62,15.0,West,8.1,-,N/A,,Clear,280,2012-11-18 08:00:00
5:00 AM,28.4,21.2,74,30.63,15.0,WNW,5.8,-,N/A,,Clear,300,2012-11-18 09:00:00
6:00 AM,28.4,23.0,80,30.65,15.0,WNW,4.6,-,N/A,,Partly Cloudy,300,2012-11-18 10:00:00
7:00 AM,28.4,23.0,80,30.67,15.0,NNW,4.6,-,N/A,,Partly Cloudy,340,2012-11-18 11:00:00
8:00 AM,31,24,67,30.69,15,NNW,4.6,,,,Partly Cloudy,330,2012-11-18 12:00:00
8:00 AM,32.0,24.8,75,30.69,15.0,NNW,4.6,-,N/A,,Scattered Clouds,330,2012-11-18 12:00:00
9:00 AM,33.8,26.6,75,30.69,15.0,WNW,3.5,-,N/A,,Mostly Cloudy,300,2012-11-18 13:00:00
10:00 AM,35.6,28.4,75,30.70,15.0,North,5.8,-,N/A,,Mostly Cloudy,350,2012-11-18 14:00:00
11:00 AM,37.4,26.6,65,30.71,15.0,North,11.5,-,N/A,,Mostly Cloudy,10,2012-11-18 15:00:00
12:00 PM,35.6,26.6,70,30.71,15.0,North,10.4,-,N/A,,Mostly Cloudy,10,2012-11-18 16:00:00
12:38 PM,35.6,26.6,70,30.71,15.0,North,9.2,-,N/A,,Overcast,360,2012-11-18 16:38:00
1:00 PM,35.6,26.6,70,30.71,15.0,North,9.2,-,N/A,,Overcast,10,2012-11-18 17:00:00
2:00 PM,36,26,56,30.70,15,North,6.9,,,,Overcast,10,2012-11-18 18:00:00
2:00 PM,35.6,26.6,70,30.70,15.0,North,6.9,-,N/A,,Overcast,360,2012-11-18 18:00:00
3:00 PM,35.6,26.6,70,30.70,15.0,North,5.8,-,N/A,,Overcast,350,2012-11-18 19:00:00
4:00 PM,35.6,26.6,70,30.71,15.0,WNW,3.5,-,N/A,,Overcast,300,2012-11-18 20:00:00
5:00 PM,33.8,26.6,75,30.71,15.0,WNW,5.8,-,N/A,,Mostly Cloudy,300,2012-11-18 21:00:00
6:00 PM,33.8,24.8,70,30.71,15.0,West,3.5,-,N/A,,Mostly Cloudy,280,2012-11-18 22:00:00
7:00 PM,33.8,24.8,70,30.71,15.0,WNW,5.8,-,N/A,,Mostly Cloudy,290,2012-11-18 23:00:00
8:00 PM,33,25,63,30.71,15,WNW,2.3,,,,Mostly Cloudy,300,2012-11-19 00:00:00
8:00 PM,33.8,24.8,70,30.70,15.0,Variable,2.3,-,N/A,,Mostly Cloudy,0,2012-11-19 00:00:00
9:00 PM,32.0,24.8,75,30.71,15.0,WSW,4.6,-,N/A,,Mostly Cloudy,240,2012-11-19 01:00:00
10:00 PM,30.2,24.8,80,30.69,15.0,SW,4.6,-,N/A,,Scattered Clouds,230,2012-11-19 02:00:00
11:00 PM,30.2,23.0,75,30.69,15.0,SW,4.6,-,N/A,,Partly Cloudy,230,2012-11-19 03:00:00